DW6157 Weather Reports


Display with metric or nautical units.
time (UTC)temp
F
wind
direction
speed
MPH
gust
MPH
rain 1hr
in
rain 24hr
in
rain mn
in
humidity
%
barometer
mb
20260831230106 52 221 0.0 0.0 0.00 0.01 0.00 93 1006.0
20260831224552 52 221 0.0 0.0 0.00 0.01 0.00 93 1006.0
20260831223052 53 221 0.0 0.0 0.00 0.01 0.00 92 1006.0
20260831221557 53 221 0.0 0.0 0.00 0.01 0.00 93 1006.1
20260831220058 53 221 0.0 0.0 0.00 0.01 0.00 92 1006.0
20260831214547 54 221 0.0 0.0 0.00 0.01 0.01 91 1005.9
20260831213044 54 221 0.0 0.0 0.00 0.01 0.01 90 1005.7
20260831211543 55 221 0.0 0.0 0.00 0.01 0.01 91 1005.7
20260831210041 55 221 0.0 0.0 0.00 0.01 0.01 91 1005.5
20260831204550 56 221 0.0 0.0 0.00 0.01 0.01 90 1005.4
20260831203041 56 221 0.0 0.0 0.00 0.01 0.01 90 1005.4
20260831201539 57 221 0.0 0.0 0.00 0.01 0.01 90 1005.4
20260831200044 57 221 0.0 0.0 0.00 0.01 0.01 89 1005.5
20260831194539 57 221 0.0 0.0 0.00 0.01 0.01 90 1005.4
20260831193041 58 221 0.0 0.0 0.00 0.01 0.01 88 1005.3
20260831191537 59 221 0.0 0.0 0.00 0.01 0.01 88 1005.2
20260831190043 61 221 0.0 0.0 0.00 0.01 0.01 85 1005.1
20260831184534 62 221 0.0 0.0 0.00 0.01 0.01 84 1005.1
20260831183032 62 221 0.0 0.0 0.00 0.01 0.01 84 1005.0
20260831181531 62 221 0.0 0.0 0.00 0.01 0.01 84 1004.9
20260831180042 63 222 0.0 0.0 0.00 0.01 0.01 83 1004.8
20260831174532 63 237 1.0 6.0 0.00 0.01 0.01 83 1004.9
20260831173029 63 214 2.0 4.0 0.00 0.01 0.01 82 1004.8
20260831171528 64 223 3.0 8.0 0.00 0.01 0.01 81 1004.8
20260831170028 64 205 0.0 5.0 0.00 0.01 0.01 81 1004.8
20260831164540 64 200 2.0 9.0 0.00 0.01 0.01 80 1004.7
20260831163026 65 210 4.0 8.0 0.00 0.01 0.01 80 1004.6
20260831161524 65 210 5.0 10.0 0.00 0.01 0.01 79 1004.5
20260831160024 66 200 4.0 11.0 0.00 0.01 0.01 79 1004.4
20260831154523 66 193 5.0 10.0 0.00 0.01 0.01 78 1004.4
20260831153022 67 200 6.0 11.0 0.00 0.01 0.01 77 1004.4
20260831151521 67 210 5.0 12.0 0.00 0.01 0.01 76 1004.4
20260831150020 69 247 5.0 11.0 0.00 0.01 0.01 74 1004.3
20260831144519 69 205 5.0 11.0 0.00 0.01 0.01 73 1004.1
20260831143021 69 227 4.0 9.0 0.00 0.01 0.01 73 1004.1
20260831141516 69 200 5.0 10.0 0.00 0.01 0.01 73 1004.1
20260831140016 69 210 3.0 12.0 0.00 0.01 0.01 73 1004.1
20260831134515 68 231 6.0 10.0 0.00 0.01 0.01 72 1004.1
20260831133014 69 200 6.0 11.0 0.00 0.01 0.01 72 1004.1
20260831131512 69 205 4.0 9.0 0.00 0.01 0.01 72 1004.0
20260831130013 67 210 5.0 9.0 0.00 0.01 0.01 72 1003.8
20260831124511 68 210 3.0 12.0 0.00 0.01 0.01 72 1003.8
20260831123010 69 205 5.0 11.0 0.00 0.01 0.01 69 1003.8
20260831121509 68 205 6.0 11.0 0.00 0.01 0.01 69 1003.7
20260831120015 68 190 5.0 11.0 0.00 0.01 0.01 71 1003.8
20260831114523 69 200 4.0 12.0 0.00 0.01 0.01 72 1003.8
20260831113006 69 200 7.0 11.0 0.00 0.01 0.01 70 1003.7
20260831111505 68 210 5.0 11.0 0.00 0.01 0.01 73 1003.7
20260831110005 67 195 2.0 11.0 0.00 0.01 0.01 76 1003.7
20260831104504 69 210 7.0 11.0 0.00 0.01 0.01 70 1003.7
20260831103002 71 214 1.0 9.0 0.00 0.01 0.01 71 1003.5
20260831101600 71 200 0.0 5.0 0.00 0.01 0.01 73 1003.5
20260831100104 70 200 0.0 5.0 0.00 0.01 0.01 74 1003.5
20260831094601 69 234 1.0 5.0 0.00 0.05 0.01 76 1003.4
20260831093058 68 106 0.0 4.0 0.00 0.05 0.01 74 1003.4
20260831091600 70 205 0.0 0.0 0.00 0.05 0.01 73 1003.5
20260831090052 69 229 0.0 0.0 0.00 0.05 0.01 75 1003.4
20260831084559 68 229 0.0 0.0 0.00 0.05 0.01 78 1003.3
20260831083046 67 229 0.0 0.0 0.00 0.05 0.01 82 1003.2
20260831081543 66 229 0.0 0.0 0.00 0.05 0.01 83 1003.3
20260831080042 65 222 0.0 0.0 0.00 0.05 0.01 85 1003.3
20260831074539 63 299 0.0 0.0 0.00 0.05 0.01 84 1003.3
20260831073038 64 246 0.0 2.0 0.00 0.05 0.01 88 1003.3
20260831071535 64 263 0.0 2.0 0.00 0.05 0.01 89 1003.3
20260831070037 63 233 0.0 0.0 0.00 0.05 0.01 93 1003.2
20260831064529 62 233 0.0 0.0 0.00 0.05 0.01 95 1003.2
20260831063026 60 233 0.0 0.0 0.00 0.05 0.01 97 1003.2
20260831061522 59 233 0.0 0.0 0.00 0.05 0.01 98 1003.0
20260831060020 56 233 0.0 0.0 0.00 0.05 0.01 97 1002.8
20260831054518 54 233 0.0 0.0 0.00 0.05 0.01 97 1002.7
20260831053021 53 232 0.0 0.0 0.00 0.05 0.01 97 1002.6
20260831051516 53 232 0.0 0.0 0.00 0.05 0.01 97 1002.6
20260831050017 52 232 0.0 0.0 0.00 0.05 0.01 97 1002.5
20260831044513 53 231 0.0 0.0 0.00 0.05 0.01 96 1002.4
20260831043009 54 231 0.0 0.0 0.00 0.05 0.01 96 1002.3
20260831041507 55 231 0.0 0.0 0.00 0.05 0.01 97 1002.2
20260831040007 55 231 0.0 0.0 0.00 0.05 0.01 97 1002.2
20260831034505 55 231 0.0 0.0 0.00 0.05 0.01 97 1002.1
20260831033008 55 231 0.0 0.0 0.00 0.05 0.01 97 1002.0
20260831031509 56 231 0.0 0.0 0.00 0.05 0.01 97 1001.9
20260831030002 56 231 0.0 0.0 0.00 0.05 0.01 97 1001.9
20260831024502 56 231 0.0 0.0 0.00 0.10 0.01 97 1001.7
20260831023101 55 231 0.0 0.0 0.00 0.10 0.01 97 1001.7
20260831021559 56 231 0.0 0.0 0.00 0.10 0.01 96 1001.8
20260831020059 56 231 0.0 0.0 0.01 0.10 0.01 97 1001.7
20260831014559 56 231 0.0 0.0 0.01 0.10 0.01 97 1001.7
20260831013058 55 231 0.0 0.0 0.01 0.10 0.01 96 1001.7
20260831011557 55 231 0.0 0.0 0.01 0.10 0.01 97 1001.7
20260831010057 55 231 0.0 0.0 0.00 0.09 0.00 96 1001.8
20260831004556 55 231 0.0 0.0 0.00 0.09 0.00 96 1001.9
20260831003101 55 231 0.0 0.0 0.00 0.09 0.00 96 1001.8
20260831001557 55 231 0.0 0.0 0.00 0.09 0.00 96 1001.8
20260831000052 55 229 0.0 0.0 0.00 0.09 0.00 95 1001.8
20260830234601 56 227 0.0 0.0 0.00 0.11 0.00 96 1001.7
20260830233051 56 226 0.0 0.0 0.00 0.11 0.00 96 1001.8
20260830231551 55 226 0.0 0.0 0.00 0.11 0.00 96 1001.6